TimeEST,TemperatureF,Dew PointF,Humidity,Sea Level PressureIn,VisibilityMPH,Wind Direction,Wind SpeedMPH,Gust SpeedMPH,PrecipitationIn,Events,Conditions,WindDirDegrees,DateUTC
12:53 AM,64.9,63.0,93,30.08,10.0,NW,6.9,-,N/A,,Scattered Clouds,320,2012-12-14 05:53:00
1:53 AM,64.9,63.0,93,30.07,10.0,North,10.4,-,N/A,,Partly Cloudy,350,2012-12-14 06:53:00
2:53 AM,64.0,62.1,93,30.06,10.0,NNW,6.9,-,N/A,,Partly Cloudy,340,2012-12-14 07:53:00
3:53 AM,64.9,63.0,93,30.06,10.0,NNW,8.1,-,N/A,,Scattered Clouds,340,2012-12-14 08:53:00
4:53 AM,64.9,63.0,93,30.06,10.0,NNW,8.1,-,N/A,,Mostly Cloudy,340,2012-12-14 09:53:00
5:53 AM,64.9,63.0,93,30.08,10.0,NNW,6.9,-,0.00,,Mostly Cloudy,340,2012-12-14 10:53:00
6:53 AM,64.0,62.1,93,30.09,10.0,NNW,3.5,-,0.00,Rain,Light Rain,330,2012-12-14 11:53:00
7:06 AM,64.4,62.6,94,30.09,10.0,WNW,4.6,-,0.00,Rain,Light Rain,300,2012-12-14 12:06:00
7:41 AM,64.4,62.6,94,30.09,10.0,NNW,6.9,-,0.00,,Mostly Cloudy,340,2012-12-14 12:41:00
7:53 AM,64.0,62.1,93,30.10,10.0,Calm,Calm,-,0.00,,Mostly Cloudy,0,2012-12-14 12:53:00
8:53 AM,66.9,64.0,90,30.12,10.0,NNW,4.6,-,N/A,,Mostly Cloudy,330,2012-12-14 13:53:00
9:53 AM,75.0,63.0,66,30.13,10.0,NE,11.5,-,0.01,,Mostly Cloudy,50,2012-12-14 14:53:00
10:53 AM,75.0,60.1,60,30.13,10.0,NNE,11.5,-,0.00,,Mostly Cloudy,30,2012-12-14 15:53:00
11:53 AM,79.0,59.0,50,30.12,10.0,NNE,15.0,-,N/A,,Mostly Cloudy,30,2012-12-14 16:53:00
12:53 PM,79.0,55.9,45,30.09,10.0,NE,15.0,-,N/A,,Mostly Cloudy,40,2012-12-14 17:53:00
1:53 PM,79.0,55.9,45,30.08,10.0,NNE,15.0,-,N/A,,Scattered Clouds,20,2012-12-14 18:53:00
2:53 PM,79.0,57.0,47,30.07,10.0,North,18.4,27.6,N/A,,Scattered Clouds,10,2012-12-14 19:53:00
3:53 PM,75.9,62.1,62,30.06,10.0,NE,16.1,23.0,N/A,,Scattered Clouds,50,2012-12-14 20:53:00
4:53 PM,75.9,62.1,62,30.06,10.0,NE,11.5,-,N/A,,Scattered Clouds,50,2012-12-14 21:53:00
5:53 PM,75.0,57.9,55,30.06,10.0,NE,9.2,-,N/A,,Scattered Clouds,40,2012-12-14 22:53:00
6:53 PM,73.9,61.0,64,30.08,10.0,NE,9.2,-,0.00,,Scattered Clouds,40,2012-12-14 23:53:00
7:53 PM,73.9,62.1,66,30.09,10.0,ENE,8.1,-,N/A,,Partly Cloudy,70,2012-12-15 00:53:00
8:53 PM,72.0,64.0,76,30.08,10.0,ENE,10.4,-,0.00,,Mostly Cloudy,70,2012-12-15 01:53:00
9:53 PM,73.0,66.0,79,30.09,10.0,NE,8.1,-,0.01,Rain,Light Rain,50,2012-12-15 02:53:00
10:53 PM,70.0,64.0,81,30.09,10.0,NE,8.1,-,0.02,Rain,Light Rain,50,2012-12-15 03:53:00
11:53 PM,71.1,66.0,84,30.09,10.0,North,5.8,-,0.00,Rain,Light Rain,10,2012-12-15 04:53:00